THOR ABLESTAR DEB, 537

Orbit data source: Space-Track

THOR ABLESTAR DEB, 537 is space debris in LEO originally from a launch on Thu, 29 Jun 1961 UTC launched from the Air Force Eastern Test Range (AFETR). Debris objects in space refer to the collection of defunct objects orbiting the Earth. Examples of debris include non-operational satellites, rocket bodies, and fragments generated from explosions, collisions, or faulty payload assembly.

Loading next visibility...
Identifier
537, 1961-015FW
Orbit
LEO
Country
Flag of USUS
Related business
Manufacturer
Unknown
Mission
Spacecraft
Bus & Motor
Unknown
Mass
Unknown
Launch date (UTC)
1961-06-29 (64 years ago)
Launch vehicle
Unknown
Launch site
Air Force Eastern Test Range (AFETR)
Object type
Payload
Rocket body
Debris
Shape & HBR
Unknown shape, 0.1 m
Radar Cross Section
Small (<0.1 m²)

Expand to show TLE details & history
Last TLE update: 1 day ago

TLE from 1 day ago
0 THOR ABLESTAR DEB
1 00537U 61015FW  25300.37199441  .00000376  00000-0  50039-3 0  9992
2 00537  67.2253 293.2891 0167335 106.7613  12.4513 13.64854072983483
Epoch: 2025-10-27T08:55Z
TLE epoch observation values (Epoch: 2025-10-27T08:55:40.317Z)
Latitude
53.38385°
Longitude
-90.79867°
Altitude
905.257 km
Speed
7.465 km/s
True Right ascension
05h 16m 22s
True Declination
53° 13' 21"
Sunlit
Object was in full shadow at epoch
Visualization orbit readout
Latitude
Unknown
Longitude
Unknown
Altitude
Unknown
Speed
Unknown
Apparent Right ascension
Unknown
Apparent Declination
Unknown
Sunlit
N/A
Visualization observer readout
Local Sidereal Time
13:43:38
Azimuth
Unknown
Elevation
Unknown
Doppler factor
Unknown
Orbital elements
Apogee altitude
1,140.206 km
Perigee altitude
892.731 km
Semi-major axis
7,394.606 km
Eccentricity
0.01673
Inclination
67.2253°
RAAN
293.2891°
Arg. of periapsis
106.7613°
True anomaly
12.87334°
Mean anomaly
12.4513°
Eccentric anomaly
12.66145°
Mean motion
3.41327 °/min
Orbital period
105.47 mins
BSTAR
0.00050039

Documentation

Showing up to 5 results
|